Вернуться в каталог

ARIANE 5 R/B

АктивенHEO
NORAD 32295·ROCKET BODY·🇫🇷 France

Запущен Nov 14, 2007 с Guiana Space Centre

Loading…

Ближайшие Пролёты (ближайшие 24 часа)

TLE

СвежийSource: Space-Track

Эпоха: Sep 14, 2026, 15:14 UTC

1 32295U 07056C   26257.63511371  .00007266  00000-0  67187-3 0  9991
2 32295   5.9699 117.8452 6709054 283.4035  14.6139  3.05779748177330

Отслеживайте ARIANE 5 R/B в реальном времени с AllMySat

Download on the App Store